Kosmos-2464

operational
NORAD ID: 37137 Int'l Des: 2010-041 Owner: KVR/IACG Country: RU Constellation: GLONASS
MEOCIRCULAR

Kosmos-2464について

説明を読み込み中...

リアルタイム位置

3D地球を読み込み中...

次回通過

高度履歴

Altitude vs Time

uPlot chart will show altitude changes over time

軌道要素

1 37137U 10041A 26054.51036205 .00000063 00000-0 00000+0 0 9994
2 37137 63.8948 193.9713 0016929 173.4345 187.7195 2.13111943120420
Epoch: Feb 23, 2026 • Age: 201 hours

現在のステータス

高度 19170.4 km
速度 3.95 km/s
衛星直下点 -56.97°S, 31.89°E
打ち上げ日 Sep 2, 2010
運用期間 15.4 years
タイプ other

技術仕様

分類 Payload
質量 1450.00 kg
乾燥質量 1200.00 kg
総質量 1450.00 kg
長さ 4.00 m
直径 1.50 m
スパン 7.80 m
形状 Cyl + Ant + 2 Pan
製造者 RESH
バスタイプ Uragan
フェーズステータス In Orbit
所有者/国 KVR/IACG/RU

大規模コンステレーション

Loading constellations...